Wink, TX

2:33 AM CDT on July 25, 2016 (GMT -0500)
Winkler County

Weather History for KINK - December, 2012

Change the Weather History Date:

Thursday, December 27, 2012

  Actual Average Record
Temperature  
Mean Temperature 40 °F -  
Max Temperature 55 °F 61 °F 81 °F (2005)
Min Temperature 24 °F 30 °F 12 °F (1973)
Degree Days  
Heating Degree Days 26    
Moisture  
Dew Point 17 °F    
Average Humidity 46    
Maximum Humidity 65    
Minimum Humidity 22    
Precipitation  
Precipitation 0.00 in - - ()
Sea Level Pressure  
Sea Level Pressure 29.79 in    
Wind  
Wind Speed 6 mph (ESE)    
Max Wind Speed 18 mph    
Max Gust Speed 24 mph    
Visibility 10 miles    
Events      
Averages and records for this station are not official NWS values.
T = Trace of Precipitation, MM = Missing Value Source: NWS Daily Summary

Daily Weather History Graph

Daily Weather History Graph

Search for Another Location

Airport or City:

Trip Planner

Search our weather history database for the weather conditions in past years. The results will help you decide how hot, cold, wet, or windy it might be!

Date:

Astronomy

Dec. 27, 2012 Rise Set
Actual Time 7:51 AM CST 5:56 PM CST
Civil Twilight 7:24 AM CST 6:23 PM CST
Nautical Twilight 6:54 AM CST 6:54 PM CST
Astronomical Twilight 6:24 AM CST 7:24 PM CST
Moon 5:40 PM CST (12/27) 7:05 AM CST (12/27)
Length of Visible Light 10h 59m
Length of Day
10h 05m
Full, 100% of the Moon is Illuminated
Dec 27
Full
Dec 28
Full
Jan 4
Last Quarter
Jan 11
New
Jan 18
First Quarter

Hourly Weather History & Observations

Time (CST) Temp. Windchill Dew Point Humidity Pressure Visibility Wind Dir Wind Speed Gust Speed Precip Events Conditions
12:53 AM 28.0 °F 20.8 °F 16.0 °F 61% 29.87 in 10.0 mi East 6.9 mph - N/A   Clear
1:53 AM 30.0 °F 21.7 °F 17.1 °F 59% 29.84 in 10.0 mi ESE 9.2 mph - N/A   Clear
2:53 AM 28.0 °F 20.8 °F 17.1 °F 63% 29.83 in 10.0 mi SE 6.9 mph - N/A   Clear
3:53 AM 27.0 °F 18.7 °F 16.0 °F 63% 29.81 in 10.0 mi SE 8.1 mph - N/A   Clear
4:53 AM 28.0 °F 20.8 °F 17.1 °F 63% 29.80 in 10.0 mi SE 6.9 mph - N/A   Clear
5:53 AM 28.9 °F 23.9 °F 17.1 °F 61% 29.80 in 10.0 mi SE 4.6 mph - N/A   Clear
6:53 AM 28.0 °F 21.7 °F 17.1 °F 63% 29.82 in 10.0 mi NNE 5.8 mph - N/A   Clear
7:53 AM 24.1 °F 18.2 °F 14.0 °F 65% 29.84 in 10.0 mi NNE 4.6 mph - N/A   Clear
8:53 AM 28.9 °F 25.2 °F 17.1 °F 61% 29.85 in 10.0 mi NNE 3.5 mph - N/A   Clear
9:53 AM 34.0 °F 28.0 °F 19.0 °F 54% 29.85 in 10.0 mi ESE 6.9 mph - N/A   Clear
10:53 AM 36.0 °F - 19.0 °F 50% 29.86 in 10.0 mi Calm Calm - N/A   Clear
11:53 AM 39.9 °F - 19.0 °F 43% 29.84 in 10.0 mi Calm Calm - N/A   Clear
12:53 PM 45.0 °F - 19.0 °F 36% 29.79 in 10.0 mi Calm Calm - N/A   Clear
1:53 PM 48.9 °F - 18.0 °F 29% 29.73 in 10.0 mi Calm Calm - N/A   Clear
2:53 PM 53.6 °F - 17.6 °F 24% 29.73 in 10.0 mi Calm Calm - N/A   Clear
3:53 PM 55.9 °F - 17.1 °F 22% 29.69 in 10.0 mi Calm Calm - N/A   Clear
4:53 PM 55.9 °F - 17.1 °F 22% 29.68 in 10.0 mi SE 4.6 mph - N/A   Clear
5:53 PM 50.0 °F - 17.1 °F 27% 29.70 in 10.0 mi SSE 4.6 mph - N/A   Clear
6:53 PM 44.1 °F 39.5 °F 16.0 °F 32% 29.73 in 10.0 mi SE 8.1 mph - N/A   Clear
7:53 PM 43.0 °F 38.2 °F 16.0 °F 34% 29.75 in 10.0 mi SE 8.1 mph - N/A   Clear
8:53 PM 39.0 °F - 15.1 °F 38% 29.77 in 10.0 mi Calm Calm - N/A   Clear
9:53 PM 37.9 °F 32.7 °F 14.0 °F 38% 29.78 in 10.0 mi Variable 6.9 mph - N/A   Clear
10:53 PM 32.0 °F 27.5 °F 12.9 °F 45% 29.83 in 10.0 mi NW 4.6 mph - N/A   Clear
11:53 PM 30.9 °F 19.1 °F 12.0 °F 46% 29.87 in 10.0 mi NNW 18.4 mph 24.2 mph N/A   Clear